Location: Berville
(49.1893°N, 2.0748°E)
Time: 06:14:10
(UTC+00:00)

CSL-04 Debris - Pass Details

Date: 08 February 2023
Orbit: 825 x 846 km, 98.8° (Epoch: 21 March)

Event Time Altitude Azimuth Distance (km) Brightness Sun altitude
Exits shadow 18:59:04 25° 136° (SE) 1,609 5.3 -19.9°
Maximum altitude 19:02:03 55° 69° (ENE) 989 4.2 -20.3°
Drops below altitude 10° 19:07:19 10° 352° (N) 2,442 6.7 -21.2°
Sets 19:09:42 0° 349° (NNW) 3,378 7.5 -21.6°
